Location: Newark
(16.3678°N, 77.8722°E)
Time: 03:22:03
(UTC+00:00)

S-56A Canister/Altair - Pass Details

Date: 11 December 2019
Orbit: 634 x 2498 km, 38.9° (Epoch: 27 January)

Event Time Altitude Azimuth Distance (km) Brightness Sun altitude
Rises 01:14:33 0° 207° (SSW) 4,444 11.4 1.0°
Reaches altitude 10° 01:17:23 10° 200° (SSW) 3,706 11.1 1.6°
Maximum altitude 01:26:46 43° 132° (SE) 2,590 11.1 3.6°
Drops below altitude 10° 01:39:30 10° 67° (ENE) 5,011 12.4 6.4°
Sets 01:43:58 0° 61° (ENE) 6,128 12.7 7.4°
